Regional Weather Roundup
Issued by NWS Green Bay, WI

Home | Current Version | Previous Version | Graphics & Text | Print | Product List | Glossary Off
Versions: 1 2 3 4 5 6 7 8 9 10 11 12 13 14 15 16 17 18 19 20 21 22 23 24 25 26 27 28 29 30 31 32 33 34 35 36 37 38 39 40 41 42 43 44 45 46 47 48 49 50

000
ASUS43 KGRB 170510
RWRGRB

NORTH-CENTRAL AND NORTHEAST WISCONSIN REGIONAL WEATHER ROUNDUP
NATIONAL WEATHER SERVICE GREEN BAY WI
1200 AM CDT THU APR 17 2014

WIZ005-009-010>012-018-019-170600-
NORTH CENTRAL WISCONSIN

CITY           SKY/WX    TMP DP  RH WIND       PRES   REMARKS
IRONWOOD       CLOUDY    30  27  86 E13G18    30.06F
MANITOWISH WTR LGT SNOW  30  29  96 SE7G16    30.08F
ARBOR VITAE    LGT SNOW  32  29  90 SE10G18   30.08S
EAGLE RIVER    LGT SNOW  30  29  97 SE14G20   30.11S
LAND O LAKES   LGT SNOW  30  28  95 SE12      30.13S
RHINELANDER    LGT SNOW  30  28  92 SE13      30.10R FOG
PHILLIPS       FLURRIES  32  29  89 E9G16     30.03S
ANTIGO         CLOUDY    31  26  80 E17       30.10F
TOMAHAWK       LGT SNOW  31  29  93 SE9       30.07S
MERRILL        LGT SNOW  35  29  80 CALM      30.07S
$$

WIZ013-073-170600-
NORTHEAST WISCONSIN

CITY           SKY/WX    TMP DP  RH WIND       PRES   REMARKS
IRON MOUNTAIN  CLOUDY    30  27  88 E12       30.19S
MARINETTE      CLOUDY    34  28  80 E9        30.21R
OCONTO         CLOUDY    33  30  88 E5        30.19S
$$

WIZ017-030-035>037-045-170600-
CENTRAL WISCONSIN

CITY           SKY/WX    TMP DP  RH WIND       PRES   REMARKS
MEDFORD        CLOUDY    36  26  67 E9        30.01F
WAUSAU         FLURRIES  37  27  67 SE20G31   30.06S
MOSINEE        FLURRIES  36  28  75 E13G21    30.07S
MARSHFIELD     CLOUDY    39  29  67 E17       30.00F
WISC RAPIDS    CLOUDY    41  28  60 SE15G25   30.04F
STEVENS POINT  FLURRIES  37  26  64 E17G24    30.07S
WAUPACA        CLOUDY    43  27  52 SE16      30.10F
SHAWANO        CLOUDY    36  29  75 E6        30.16S
CLINTONVILLE   CLOUDY    36  28  75 E8        30.13F
$$

WIZ038-039-048-051-170600-
FOX VALLEY

CITY           SKY/WX    TMP DP  RH WIND       PRES   REMARKS
NWS GREEN BAY  CLOUDY    39  27  62 SE13G24   30.17F
APPLETON       CLOUDY    39  27  60 SE15G21   30.14S
OSHKOSH        CLOUDY    41  26  55 SE15G24   30.11F
FOND DU LAC    CLOUDY    41  26  55 SE20      30.11F
$$

WIZ022-050-052-170600-
EAST CENTRAL WISCONSIN

CITY           SKY/WX    TMP DP  RH WIND       PRES   REMARKS
STURGEON BAY   CLOUDY    36  28  75 SE10      30.21S
MANITOWOC      CLOUDY    39  29  67 SE15      30.20S
SHEBOYGAN      CLOUDY    39  26  59 SE15G26   30.17F
$$

LMZ563-521-522-541>543-170600-
LAKESHORE

STATION/POSITION TIME  TEMP    WIND        PRES    VSBY  WAVE
                       AIR SEA DIR/SP/G                  HT/PER
                 (UTC) (F)     (DEG/KT/KT) (MB)    (MI)  (FT/S)
SHEBOYGAN LKSHOR 0500   39     140/ 23/ 26 1022.3F
NORTHPORT PIER   0500   33      90/ 10/ 15 1023.7S
SISTER BAY LKSHO 0500   35     110/ 11/ 16   N/A
MENOMINEE LKSHOR 0500   33      50/  9/ 10 1023.4R
$$



USA.gov is the U.S. government's official web portal to all federal, state and local government web resources and services.